カタログに戻る

STARLINK-34350

運用中通信VLEO
NORAD 64276·PAYLOAD·🇺🇸 United States

打ち上げ Jun 4, 2025 から Vandenberg Space Force Base

Loading…

次のパス (今後24時間)

TLE

最新Source: CelesTrak SupGP

元期: Sep 15, 2026, 03:22 UTC

1 64276C 25120W   26258.14076389  .00037790  00000+0  11165-2 0  2585
2 64276  53.1598 311.0089 0001368  92.1563 218.0866 15.34372685    10

AllMySatでSTARLINK-34350をリアルタイム追跡

Download on the App Store